Date,TemperatureHighF,TemperatureAvgF,TemperatureLowF,DewpointHighF,DewpointAvgF,DewpointLowF,HumidityHigh,HumidityAvg,HumidityLow,PressureMaxIn,PressureMinIn,WindSpeedMaxMPH,WindSpeedAvgMPH,GustSpeedMaxMPH,PrecipitationSumIn
2013-1-1,28,20,9,13,4,-2,71,50,34,0.00,40.00,20,11,26,0.00
2013-1-2,27,19,6,13,3,-5,72,51,32,0.00,40.00,26,11,32,0.00
2013-1-3,36,18,5,-2,-7,-20,56,34,11,0.00,40.00,17,8,21,0.00
2013-1-4,35,20,11,6,-3,-9,46,35,27,0.00,40.00,17,7,23,0.00
2013-1-5,34,19,3,4,-2,-9,59,39,26,0.00,40.00,14,7,19,0.00
2013-1-6,51,33,7,3,-5,-33,52,22,10,0.00,40.00,28,12,40,0.00
2013-1-7,45,36,23,3,-3,-9,24,18,14,0.00,40.00,31,17,39,0.00
2013-1-8,44,38,34,12,8,3,36,28,22,0.00,40.00,30,21,42,0.00
2013-1-9,55,46,37,13,8,0,35,22,11,0.00,40.00,29,18,40,0.00
2013-1-10,55,45,30,9,2,-1,31,16,11,0.00,40.00,29,10,39,0.00
2013-1-11,39,14,4,16,1,-25,71,56,22,0.00,40.00,20,9,29,0.00
2013-1-12,10,4,-3,-2,-6,-14,67,61,40,0.00,40.00,22,8,29,0.00
2013-1-13,12,2,-4,-5,-9,-41,69,61,11,0.00,40.00,9,4,12,0.00
2013-1-14,12,3,-11,-7,-12,-18,68,50,35,0.00,40.00,23,10,30,0.00
2013-1-15,30,21,9,7,0,-13,42,39,35,0.00,40.00,23,17,32,0.00
2013-1-16,43,30,21,9,5,0,44,33,18,0.00,40.00,26,13,34,0.00
2013-1-17,47,32,17,7,2,-2,47,30,15,0.00,40.00,26,10,33,0.00
2013-1-18,51,41,33,-1,-3,-7,20,15,10,0.00,40.00,28,17,35,0.00
2013-1-19,50,39,27,0,-3,-9,24,16,10,0.00,40.00,22,12,29,0.00
2013-1-20,39,28,10,8,3,-5,74,36,18,0.00,40.00,17,7,32,0.00
2013-1-21,50,36,10,9,1,-6,75,28,10,0.00,40.00,26,14,34,0.00
2013-1-22,54,42,26,-1,-6,-10,20,13,10,0.00,40.00,22,13,29,0.00
2013-1-23,58,48,41,2,-6,-11,10,10,10,0.00,40.00,22,12,31,0.00
2013-1-24,54,47,34,23,8,-9,61,23,10,0.00,40.00,36,21,53,0.00
2013-1-25,52,42,35,22,17,14,56,37,23,0.00,40.00,27,17,36,0.00
2013-1-26,54,45,38,20,17,16,40,32,24,0.00,40.00,24,14,34,0.00
2013-1-27,54,45,37,23,19,15,46,36,25,0.00,40.00,25,10,31,0.00
2013-1-28,42,28,20,24,19,5,81,70,34,0.00,40.00,13,5,18,0.00
2013-1-29,27,18,9,9,0,-33,67,47,11,0.00,40.00,16,7,24,0.00
2013-1-30,33,23,2,12,4,-18,67,44,31,0.00,40.00,23,12,31,0.00
2013-1-31,33,27,20,17,12,6,69,54,40,0.00,40.00,18,6,28,0.00